User: anonymous   Login
Location: Beverley
(50.2667°N, 107.9667°W)
Time: 13:44:24
(UTC+00:00)
Language:

LO-87 - Orbit

View from above orbital plane
View from above orbital plane
View from above satellite
View from above satellite

Ground track
Ground track

The orbit data is extracted from the following two-line orbital elements,

1 41557U 16033B   22179.20290774  .00009947  00000-0  29546-3 0  9995
2 41557  97.3887 276.9188 0009928 347.3299 100.0546 15.34933759339035
Epoch (UTC): 28 June 2022 04:52:11
Eccentricity: 0.0009928
inclination: 97.3887°
perigee height: 454 km
apogee height: 468 km
right ascension of ascending node: 276.9188°
argument of perigee: 347.3299°
revolutions per day: 15.34933759
mean anomaly at epoch: 100.0546°
orbit number at epoch: 33903

The dashed part of the orbit path shows where the satellite is in the earth's shadow,  

DLR